User: anonymous   Login
Location: Diebersbach
(48.5163°N, 8.0558°E)
Time: 11:08:11
(UTC+00:00)
Language:

YAOGAN 11 - Orbit

View from above orbital plane
View from above orbital plane
View from above satellite
View from above satellite

Ground track
Ground track

The orbit data is extracted from the following two-line orbital elements,

1 37165U 10047A   21259.59959125  .00000077  00000-0  19018-4 0  9995
2 37165  98.3179  24.0404 0039337  27.6700 332.6590 14.76363904591727
Epoch (UTC): 16 September 2021 14:23:24
Eccentricity: 0.0039337
inclination: 98.3179°
perigee height: 613 km
apogee height: 668 km
right ascension of ascending node: 24.0404°
argument of perigee: 27.6700°
revolutions per day: 14.76363904
mean anomaly at epoch: 332.6590°
orbit number at epoch: 59172

The dashed part of the orbit path shows where the satellite is in the earth's shadow,  

DLR